| time (UTC) | temp F | wind direction | speed knots | gust knots | rain 1hr in | rain 24hr in | rain mn in | humidity % | barometer mb |
| 20260904115518 | 82 | 248 | 15.6 | 30.4 | 0.00 | 0.00 | 0.00 | 46 | 1014.2 |
| 20260904114518 | 82 | 236 | 16.5 | 24.3 | 0.00 | 0.00 | 0.00 | 45 | 1014.3 |
| 20260904113519 | 82 | 210 | 13.0 | 19.1 | 0.00 | 0.00 | 0.00 | 46 | 1014.4 |
| 20260904112518 | 82 | 199 | 20.0 | 26.1 | 0.00 | 0.00 | 0.00 | 47 | 1014.5 |
| 20260904111519 | 81 | 171 | 8.7 | 18.2 | 0.00 | 0.00 | 0.00 | 48 | 1014.7 |
| 20260904110517 | 80 | 213 | 13.9 | 26.1 | 0.00 | 0.00 | 0.00 | 49 | 1014.8 |
| 20260904105538 | 80 | 254 | 20.0 | 29.5 | 0.00 | 0.00 | 0.00 | 49 | 1014.9 |
| 20260904104519 | 80 | 204 | 6.1 | 11.3 | 0.00 | 0.00 | 0.00 | 49 | 1014.9 |
| 20260904103518 | 79 | 233 | 13.0 | 18.2 | 0.00 | 0.00 | 0.00 | 50 | 1015.0 |
| 20260904102539 | 79 | 264 | 13.9 | 26.9 | 0.00 | 0.00 | 0.00 | 51 | 1015.0 |
| 20260904101556 | 79 | 234 | 11.3 | 24.3 | 0.00 | 0.00 | 0.00 | 51 | 1015.1 |
| 20260904100519 | 79 | 280 | 16.5 | 27.8 | 0.00 | 0.00 | 0.00 | 51 | 1015.2 |
| 20260904095519 | 79 | 191 | 8.7 | 14.8 | 0.00 | 0.00 | 0.00 | 50 | 1015.4 |
| 20260904094538 | 78 | 245 | 13.0 | 20.0 | 0.00 | 0.00 | 0.00 | 53 | 1015.4 |
| 20260904093518 | 78 | 253 | 11.3 | 16.5 | 0.00 | 0.00 | 0.00 | 53 | 1015.4 |
| 20260904092538 | 77 | 234 | 11.3 | 20.0 | 0.00 | 0.00 | 0.00 | 54 | 1015.5 |
| 20260904091539 | 77 | 175 | 13.0 | 18.2 | 0.00 | 0.00 | 0.00 | 53 | 1015.6 |
| 20260904090517 | 77 | 231 | 12.2 | 21.7 | 0.00 | 0.00 | 0.00 | 55 | 1015.6 |
| 20260904085518 | 77 | 219 | 11.3 | 25.2 | 0.00 | 0.00 | 0.00 | 55 | 1015.7 |
| 20260904084518 | 76 | 158 | 9.6 | 14.8 | 0.00 | 0.00 | 0.00 | 56 | 1015.8 |
| 20260904083538 | 76 | 194 | 7.8 | 14.8 | 0.00 | 0.00 | 0.00 | 59 | 1015.8 |
| 20260904082557 | 75 | 175 | 11.3 | 17.4 | 0.00 | 0.00 | 0.00 | 61 | 1016.0 |
| 20260904081518 | 75 | 208 | 8.7 | 13.0 | 0.00 | 0.00 | 0.00 | 62 | 1016.1 |
| 20260904080558 | 73 | 255 | 8.7 | 15.6 | 0.00 | 0.00 | 0.00 | 64 | 1016.2 |
| 20260904075518 | 72 | 256 | 9.6 | 20.9 | 0.00 | 0.00 | 0.00 | 65 | 1016.3 |
| 20260904074518 | 71 | 205 | 11.3 | 17.4 | 0.00 | 0.00 | 0.00 | 68 | 1016.3 |
| 20260904073518 | 70 | 291 | 7.8 | 13.9 | 0.00 | 0.00 | 0.00 | 70 | 1016.3 |
| 20260904072518 | 69 | 301 | 8.7 | 17.4 | 0.00 | 0.00 | 0.00 | 73 | 1016.2 |
| 20260904071518 | 69 | 300 | 13.0 | 23.5 | 0.00 | 0.00 | 0.00 | 74 | 1016.3 |
| 20260904070518 | 69 | 298 | 12.2 | 20.0 | 0.00 | 0.00 | 0.00 | 74 | 1016.3 |
| 20260904065538 | 69 | 308 | 10.4 | 18.2 | 0.00 | 0.00 | 0.00 | 74 | 1016.2 |
| 20260904064519 | 68 | 270 | 7.8 | 13.0 | 0.00 | 0.00 | 0.00 | 75 | 1016.3 |
| 20260904063519 | 69 | 280 | 10.4 | 14.8 | 0.00 | 0.00 | 0.00 | 74 | 1015.9 |
| 20260904062538 | 68 | 185 | 4.3 | 13.0 | 0.00 | 0.00 | 0.00 | 73 | 1016.2 |
| 20260904061518 | 67 | 185 | 5.2 | 7.8 | 0.00 | 0.00 | 0.00 | 74 | 1016.2 |
| 20260904060558 | 67 | 259 | 4.3 | 7.0 | 0.00 | 0.00 | 0.00 | 75 | 1016.2 |
| 20260904055518 | 67 | 215 | 4.3 | 11.3 | 0.00 | 0.00 | 0.00 | 74 | 1016.2 |
| 20260904054518 | 65 | 100 | 4.3 | 13.0 | 0.00 | 0.00 | 0.00 | 78 | 1016.2 |
| 20260904053517 | 64 | 299 | 5.2 | 13.0 | 0.00 | 0.00 | 0.00 | 81 | 1016.1 |
| 20260904052519 | 63 | 161 | 5.2 | 9.6 | 0.00 | 0.00 | 0.00 | 83 | 1016.1 |
| 20260904051520 | 62 | 199 | 5.2 | 10.4 | 0.00 | 0.00 | 0.00 | 84 | 1016.0 |
| 20260904050518 | 62 | 212 | 2.6 | 6.1 | 0.00 | 0.00 | 0.00 | 86 | 1015.7 |
| 20260904045558 | 61 | 168 | 4.3 | 6.1 | 0.00 | 0.00 | 0.00 | 87 | 1016.2 |
| 20260904044518 | 60 | 149 | 6.1 | 7.8 | 0.00 | 0.00 | 0.00 | 88 | 1016.2 |
| 20260904043518 | 59 | 128 | 3.5 | 6.1 | 0.00 | 0.00 | 0.00 | 88 | 1016.3 |
| 20260904042518 | 59 | 167 | 4.3 | 11.3 | 0.00 | 0.00 | 0.00 | 88 | 1016.3 |
| 20260904041518 | 59 | 141 | 5.2 | 7.0 | 0.00 | 0.00 | 0.00 | 88 | 1016.3 |
| 20260904040518 | 60 | 155 | 1.7 | 6.1 | 0.00 | 0.00 | 0.00 | 85 | 1016.3 |
| 20260904035538 | 61 | 21 | 7.0 | 11.3 | 0.00 | 0.00 | 0.00 | 86 | 1016.1 |
| 20260904034521 | 61 | 20 | 6.1 | 9.6 | 0.00 | 0.00 | 0.00 | 85 | 1016.3 |
| 20260904033519 | 61 | 14 | 7.0 | 9.6 | 0.00 | 0.00 | 0.00 | 86 | 1016.3 |
| 20260904032518 | 60 | 353 | 6.1 | 9.6 | 0.00 | 0.00 | 0.00 | 86 | 1016.4 |
| 20260904031517 | 60 | 283 | 5.2 | 13.0 | 0.00 | 0.00 | 0.00 | 86 | 1016.5 |
| 20260904030520 | 60 | 297 | 8.7 | 11.3 | 0.00 | 0.00 | 0.00 | 85 | 1016.4 |
| 20260904025516 | 60 | 286 | 13.9 | 20.0 | 0.00 | 0.00 | 0.00 | 85 | 1016.4 |
| 20260904024519 | 60 | 280 | 13.9 | 20.0 | 0.00 | 0.00 | 0.00 | 85 | 1016.4 |
| 20260904023520 | 60 | 301 | 14.8 | 20.9 | 0.00 | 0.00 | 0.00 | 83 | 1016.4 |
| 20260904022538 | 60 | 285 | 14.8 | 20.0 | 0.00 | 0.00 | 0.00 | 84 | 1016.4 |
| 20260904021519 | 60 | 285 | 8.7 | 11.3 | 0.00 | 0.00 | 0.00 | 82 | 1016.1 |
| 20260904020519 | 61 | 322 | 5.2 | 7.8 | 0.00 | 0.00 | 0.00 | 82 | 1015.9 |
| 20260904015540 | 60 | 223 | 5.2 | 8.7 | 0.00 | 0.00 | 0.00 | 83 | 1016.0 |
| 20260904014520 | 60 | 308 | 6.1 | 10.4 | 0.00 | 0.00 | 0.00 | 83 | 1016.0 |
| 20260904013518 | 60 | 240 | 4.3 | 8.7 | 0.00 | 0.00 | 0.00 | 84 | 1015.9 |
| 20260904012538 | 60 | 360 | 2.6 | 8.7 | 0.00 | 0.00 | 0.00 | 84 | 1015.8 |
| 20260904011518 | 60 | 170 | 7.8 | 11.3 | 0.00 | 0.00 | 0.00 | 84 | 1015.9 |
| 20260904010537 | 60 | 226 | 3.5 | 7.8 | 0.00 | 0.00 | 0.00 | 83 | 1016.0 |
| 20260904005539 | 61 | 93 | 5.2 | 9.6 | 0.00 | 0.00 | 0.00 | 82 | 1015.9 |
| 20260904004539 | 61 | 106 | 5.2 | 9.6 | 0.00 | 0.00 | 0.00 | 81 | 1015.9 |
| 20260904003520 | 62 | 208 | 1.7 | 6.1 | 0.00 | 0.00 | 0.00 | 81 | 1016.0 |
| 20260904002518 | 62 | 248 | 6.1 | 7.8 | 0.00 | 0.00 | 0.00 | 81 | 1016.0 |
| 20260904001518 | 62 | 236 | 5.2 | 8.7 | 0.00 | 0.00 | 0.00 | 80 | 1015.9 |
| 20260904000519 | 62 | 316 | 4.3 | 6.1 | 0.00 | 0.00 | 0.00 | 80 | 1015.9 |
| 20260903235519 | 62 | 7 | 4.3 | 7.0 | 0.00 | 0.00 | 0.00 | 79 | 1016.0 |
| 20260903234539 | 62 | 77 | 2.6 | 5.2 | 0.00 | 0.00 | 0.00 | 79 | 1016.0 |
| 20260903233518 | 63 | 140 | 5.2 | 7.8 | 0.00 | 0.00 | 0.00 | 79 | 1016.1 |
| 20260903232520 | 64 | 235 | 5.2 | 7.8 | 0.00 | 0.00 | 0.00 | 76 | 1016.1 |
| 20260903231519 | 64 | 353 | 7.8 | 14.8 | 0.00 | 0.00 | 0.00 | 76 | 1016.2 |
| 20260903230519 | 63 | 2 | 7.0 | 11.3 | 0.00 | 0.00 | 0.00 | 78 | 1016.3 |
| 20260903225519 | 64 | 285 | 2.6 | 7.8 | 0.00 | 0.00 | 0.00 | 77 | 1016.4 |
| 20260903224517 | 65 | 345 | 6.1 | 12.2 | 0.00 | 0.00 | 0.00 | 75 | 1016.4 |
| 20260903223518 | 65 | 360 | 9.6 | 15.6 | 0.00 | 0.00 | 0.00 | 75 | 1016.3 |
| 20260903222600 | 65 | 24 | 1.7 | 9.6 | 0.00 | 0.00 | 0.00 | 74 | 1016.4 |
| 20260903221518 | 66 | 227 | 2.6 | 6.1 | 0.00 | 0.00 | 0.00 | 71 | 1016.3 |
| 20260903220539 | 67 | 335 | 5.2 | 15.6 | 0.00 | 0.00 | 0.00 | 68 | 1016.1 |
| 20260903215518 | 67 | 345 | 8.7 | 13.9 | 0.00 | 0.00 | 0.00 | 68 | 1016.0 |
| 20260903214520 | 67 | 355 | 9.6 | 13.0 | 0.00 | 0.00 | 0.00 | 70 | 1016.0 |
| 20260903213518 | 67 | 105 | 0.0 | 3.5 | 0.00 | 0.00 | 0.00 | 70 | 1016.1 |
| 20260903212518 | 67 | 147 | 0.9 | 2.6 | 0.00 | 0.00 | 0.00 | 69 | 1016.1 |
| 20260903211519 | 68 | 196 | 6.1 | 10.4 | 0.00 | 0.00 | 0.00 | 69 | 1016.1 |
| 20260903210519 | 69 | 336 | 4.3 | 8.7 | 0.00 | 0.00 | 0.00 | 67 | 1016.1 |
| 20260903205520 | 69 | 13 | 7.0 | 8.7 | 0.00 | 0.00 | 0.00 | 66 | 1016.1 |
| 20260903204519 | 69 | 172 | 3.5 | 5.2 | 0.00 | 0.00 | 0.00 | 66 | 1016.1 |
| 20260903203558 | 69 | 296 | 2.6 | 7.0 | 0.00 | 0.00 | 0.00 | 65 | 1016.1 |
| 20260903202518 | 69 | 3 | 1.7 | 3.5 | 0.00 | 0.00 | 0.00 | 65 | 1016.1 |
| 20260903201539 | 69 | 0.0 | 0.0 | 0.00 | 0.00 | 0.00 | 66 | 1016.1 | |
| 20260903200519 | 69 | 354 | 2.6 | 5.2 | 0.00 | 0.00 | 0.00 | 66 | 1016.1 |
| 20260903195519 | 70 | 194 | 8.7 | 21.7 | 0.00 | 0.00 | 0.00 | 66 | 1016.3 |
| 20260903194520 | 70 | 323 | 3.5 | 8.7 | 0.00 | 0.00 | 0.00 | 63 | 1016.2 |
| 20260903193518 | 69 | 19 | 1.7 | 4.3 | 0.00 | 0.00 | 0.00 | 64 | 1016.3 |
| 20260903192520 | 70 | 32 | 1.7 | 2.6 | 0.00 | 0.00 | 0.00 | 65 | 1016.3 |
| 20260903191520 | 71 | 0.0 | 0.0 | 0.00 | 0.00 | 0.00 | 63 | 1016.3 | |
| 20260903190557 | 72 | 284 | 0.9 | 2.6 | 0.00 | 0.00 | 0.00 | 61 | 1016.2 |
| 20260903185518 | 72 | 141 | 2.6 | 4.3 | 0.00 | 0.00 | 0.00 | 57 | 1016.3 |
| 20260903184520 | 73 | 0.0 | 0.0 | 0.00 | 0.00 | 0.00 | 57 | 1016.4 | |
| 20260903183518 | 73 | 34 | 2.6 | 4.3 | 0.00 | 0.00 | 0.00 | 55 | 1016.5 |
| 20260903182520 | 73 | 17 | 6.1 | 7.0 | 0.00 | 0.00 | 0.00 | 55 | 1016.5 |
| 20260903181600 | 73 | 22 | 6.1 | 7.8 | 0.00 | 0.00 | 0.00 | 56 | 1016.4 |
| 20260903180520 | 73 | 15 | 7.0 | 7.8 | 0.00 | 0.00 | 0.00 | 56 | 1016.4 |
| 20260903175519 | 72 | 23 | 7.0 | 8.7 | 0.00 | 0.00 | 0.00 | 56 | 1016.4 |
| 20260903174520 | 73 | 17 | 6.1 | 7.0 | 0.00 | 0.00 | 0.00 | 57 | 1016.4 |
| 20260903173518 | 73 | 17 | 6.1 | 7.0 | 0.00 | 0.00 | 0.00 | 56 | 1016.4 |
| 20260903172519 | 73 | 13 | 6.1 | 7.0 | 0.00 | 0.00 | 0.00 | 57 | 1016.4 |
| 20260903171517 | 72 | 18 | 5.2 | 7.0 | 0.00 | 0.00 | 0.00 | 58 | 1016.2 |
| 20260903170520 | 73 | 15 | 5.2 | 6.1 | 0.00 | 0.00 | 0.00 | 58 | 1016.2 |
| 20260903165518 | 74 | 33 | 5.2 | 6.1 | 0.00 | 0.00 | 0.00 | 54 | 1016.0 |
| 20260903164520 | 74 | 57 | 5.2 | 6.1 | 0.00 | 0.00 | 0.00 | 55 | 1015.8 |
| 20260903163518 | 75 | 61 | 4.3 | 6.1 | 0.00 | 0.00 | 0.00 | 56 | 1015.7 |
| 20260903162520 | 76 | 32 | 4.3 | 6.1 | 0.00 | 0.00 | 0.00 | 55 | 1015.6 |
| 20260903161538 | 76 | 38 | 3.5 | 6.1 | 0.00 | 0.00 | 0.00 | 54 | 1015.6 |
| 20260903160518 | 77 | 22 | 1.7 | 6.1 | 0.00 | 0.00 | 0.00 | 52 | 1015.6 |
| 20260903155519 | 78 | 24 | 2.6 | 5.2 | 0.00 | 0.00 | 0.00 | 51 | 1015.5 |
| 20260903154518 | 78 | 12 | 1.7 | 4.3 | 0.00 | 0.00 | 0.00 | 51 | 1015.6 |
| 20260903153518 | 79 | 314 | 2.6 | 4.3 | 0.00 | 0.00 | 0.00 | 47 | 1015.5 |
| 20260903152518 | 79 | 0.0 | 0.0 | 0.00 | 0.00 | 0.00 | 47 | 1015.5 | |
| 20260903151519 | 79 | 342 | 2.6 | 7.0 | 0.00 | 0.00 | 0.00 | 48 | 1015.5 |
| 20260903150539 | 80 | 3 | 8.7 | 13.9 | 0.00 | 0.00 | 0.00 | 46 | 1015.5 |
| 20260903145519 | 80 | 20 | 7.0 | 14.8 | 0.00 | 0.00 | 0.00 | 46 | 1015.6 |
| 20260903144518 | 80 | 315 | 7.8 | 11.3 | 0.00 | 0.00 | 0.00 | 47 | 1015.6 |
| 20260903143537 | 80 | 285 | 9.6 | 16.5 | 0.00 | 0.00 | 0.00 | 47 | 1015.7 |
| 20260903142518 | 79 | 260 | 6.1 | 13.9 | 0.00 | 0.00 | 0.00 | 47 | 1015.8 |
| 20260903141518 | 81 | 228 | 10.4 | 18.2 | 0.00 | 0.00 | 0.00 | 45 | 1015.7 |
| 20260903140518 | 80 | 275 | 11.3 | 16.5 | 0.00 | 0.00 | 0.00 | 47 | 1015.8 |
| 20260903135539 | 81 | 323 | 9.6 | 20.9 | 0.00 | 0.00 | 0.00 | 47 | 1015.8 |
| 20260903134520 | 80 | 315 | 9.6 | 18.2 | 0.00 | 0.00 | 0.00 | 48 | 1015.9 |
| 20260903133538 | 81 | 270 | 11.3 | 27.8 | 0.00 | 0.00 | 0.00 | 47 | 1015.9 |
| 20260903132520 | 81 | 269 | 9.6 | 18.2 | 0.00 | 0.00 | 0.00 | 47 | 1016.0 |
| 20260903131518 | 81 | 280 | 12.2 | 19.1 | 0.00 | 0.00 | 0.00 | 46 | 1016.2 |
| 20260903130519 | 80 | 356 | 8.7 | 18.2 | 0.00 | 0.00 | 0.00 | 48 | 1016.2 |
| 20260903125518 | 81 | 348 | 11.3 | 17.4 | 0.00 | 0.00 | 0.00 | 48 | 1016.3 |
| 20260903124540 | 80 | 17 | 3.5 | 7.0 | 0.00 | 0.00 | 0.00 | 49 | 1016.4 |
| 20260903123539 | 80 | 274 | 14.8 | 19.1 | 0.00 | 0.00 | 0.00 | 49 | 1016.6 |
| 20260903122521 | 80 | 280 | 7.8 | 24.3 | 0.00 | 0.00 | 0.00 | 49 | 1016.6 |
| 20260903121517 | 79 | 260 | 8.7 | 16.5 | 0.00 | 0.00 | 0.00 | 48 | 1016.8 |
| 20260903120519 | 79 | 304 | 11.3 | 20.9 | 0.00 | 0.00 | 0.00 | 47 | 1016.9 |